Preview of NWS' New Version of Forecast
This preview is not operational and should not be used for support decisions.

Regional Weather Roundup (RWR)

Issued by National Weather Service (NWS)

                            
000
ASUS43 KLSX 211407
RWRMO 

WEATHER SUMMARY FOR MISSOURI
NATIONAL WEATHER SERVICE SPRINGFIELD MO
900 AM CDT SUN APR 21 2019

NOTE: "FAIR" INDICATES FEW OR NO CLOUDS BELOW 12,000 FEET WITH NO
       SIGNIFICANT WEATHER AND/OR OBSTRUCTIONS TO VISIBILITY.
       CURRENT SKY AND/OR WEATHER CONDITIONS ARE NOT AVAILABLE FOR
       CHILLICOTHE AND FARMINGTON.

MOZ001>031-035>038-043-044-053-054-211500-
...NORTHERN AND WESTERN MISSOURI...
  
CITY           SKY/WX    TMP DP  RH WIND       PRES   REMARKS
KANSAS CTY INT MOSUNNY   68  49  50 S22G29    29.82F                  
KANSAS C DTWN  SUNNY     69  48  47 S12       29.85S                  
LEE'S SUMMIT   SUNNY     65  48  54 S20G29    29.87F                  
ST JOSEPH      SUNNY     69  51  52 S13       29.80F                  
CHILLICOTHE      N/A     63  45  51 S10       29.89S                  
KIRKSVILLE     SUNNY     64  46  52 S13       29.93S                  
     
$$
MOZ066>068-077>081-088>096-101>105-211500-
...SOUTHWEST MISSOURI...
  
CITY           SKY/WX    TMP DP  RH WIND       PRES   REMARKS
SPRINGFIELD    SUNNY     61  44  53 S12       29.98R                  
JOPLIN         SUNNY     67  49  52 S21G26    29.94F                  
BRANSON        SUNNY     61  43  51 SE6       30.02R                  
               
$$
MOZ032>034-039>042-045>050-055>058-069>072-211500-
...CENTRAL MISSOURI...  
  
CITY           SKY/WX    TMP DP  RH WIND       PRES   REMARKS
COLUMBIA       SUNNY     62  43  49 S9        29.97R                  
JEFFERSON CITY SUNNY     57  44  62 E8        29.98R                  
ROLLA          SUNNY     64  43  46 S8        30.01R                  
SEDALIA        SUNNY     61  48  62 SW15G22   29.94S                  
WHITEMAN AFB   SUNNY     63  49  59 S16G23    29.88S                  
WARRENSBURG    SUNNY     59  46  63 S8        29.91S                  
OSAGE BEACH    SUNNY     61  43  51 S6        29.99R                  
               
$$
MOZ051-052-059>065-211500-
...EAST CENTRAL MISSOURI...
  
CITY           SKY/WX    TMP DP  RH WIND       PRES   REMARKS
ST LOUIS INTL  MOSUNNY   62  36  37 S9        30.02R                  
SPIRIT OF STL  SUNNY     61  39  44 S5        30.01R                  
ST CHARLES     SUNNY     58  42  55 S3        30.02R                  
                   
$$
MOZ072>076-082>087-097>100-106>115-211500-
...SOUTH CENTRAL AND SOUTHEAST MISSOURI...
  
CITY           SKY/WX    TMP DP  RH WIND       PRES   REMARKS
CAPE GIRARDEAU FAIR      60  43  53 SE6       30.06R                  
FARMINGTON     SUNNY     59  38  45 S5        30.06R                  
POPLAR BLUFF   FAIR      57  48  72 CALM      30.05R                  
WEST PLAINS    SUNNY     61  42  49 SE5       30.05R                  
                                       
$$